Location: Byszew
(52.1813°N, 19.2693°E)
Time: 19:30:07
(UTC+00:00)

SL-4 R/B - Pass Details

Date: 03 March 2021
Orbit: 428 x 663 km, 51.6° (Epoch: 15 April)

Event Time Altitude Azimuth Distance (km) Brightness Sun altitude
Rises 18:12:53 0° 280° (W) 2,483 7.2 -17.1°
Reaches altitude 10° 18:15:05 10° 277° (W) 1,580 5.7 -17.4°
Maximum altitude 18:18:33 57° 198° (SSW) 520 1.8 -17.9°
Enters shadow 18:19:15 46° 150° (SSE) 598 1.9 -18.0°
